Regional Weather Roundup
Issued by NWS Bismarck, ND

Home | Current Version | Previous Version | Text Only | Print | Product List | Glossary On
Versions: 1 2 3 4 5 6 7 8 9 10 11 12 13 14 15 16 17 18 19 20 21 22 23 24 25 26 27 28 29 30 31 32 33 34 35 36 37 38 39 40 41 42 43 44 45 46 47 48 49 50
000
ASUS43 KBIS 212310
RWRBIS

NWR BROADCAST TEXT
NATIONAL WEATHER SERVICE BISMARCK ND
600 PM CDT MON MAY 21 2018

NOTE: "FAIR" INDICATES FEW OR NO CLOUDS BELOW 12,000 FEET WITH NO
SIGNIFICANT WEATHER AND/OR OBSTRUCTIONS TO VISIBILITY.


CITY           SKY/WX    TMP DP  RH WIND       PRES   REMARKS
WILLISTON      SUNNY     80  41  24 W6        29.85F
MINOT          SUNNY     80  36  20 S15G23    29.87F
MINOT AFB      SUNNY     79  39  24 S16       29.85F
BISMARCK       SUNNY     74  49  41 S13       29.91F
DICKINSON      SUNNY     76  36  23 SE6       29.88S
GARRISON         N/A     75  43  31 S14       29.88F
HETTINGER ARPT SUNNY     73  47  39 SE7G18    29.91F
JAMESTOWN      PTSUNNY   73  53  49 S10       29.93F
CARRINGTON     MOCLDY    75  48  38 S12       29.94F
HAZEN          FAIR      77  43  29 S12       29.90F
LINTON         FAIR     N/A N/A N/A S8        29.94F
MANDAN         FAIR      73  48  40 S8        29.92S
OAKES            N/A     70  59  68 SE10      29.95F
STANLEY          N/A     77  36  22 S14G20    29.90S HAZE
TIOGA          FAIR      77  32  19 SW9G16    29.88F
WATFORD CITY   FAIR      79  36  21 S9        29.86S
$$

CITY           SKY/WX    TMP DP  RH WIND       PRES   REMARKS
GRAND FORKS    FAIR      78  43  28 S13G18    29.92S
GRAND FORKS AF FAIR      77  43  29 S6        29.92F
DEVILS LAKE    FAIR      74  44  34 SE9       29.93F
FARGO          CLOUDY    71  52  50 SE9       29.95F
CANDO          FAIR      77  43  29 SE14      29.93F
CAVALIER         N/A     77  27  15 S12       29.91F
GRAFTON        FAIR      77  37  24 SE8       29.94S
GWINNER          N/A     68  55  64 S8        29.96S
LANGDON        FAIR      75  30  19 S15       29.94F
ROLLA          FAIR      75  36  23 S13       29.92F
WALHALLA       FAIR      77  34  20 SE10      29.91F
$$

CITY           SKY/WX    TMP DP  RH WIND       PRES   REMARKS
ABERDEEN       CLOUDY    73  56  54 E6        29.94F
MOBRIDGE       SUNNY     74  51  44 S7        29.90F
BUFFALO          N/A     76  49  38 SE15      29.83S
RAPID CITY     SUNNY     73  53  49 SE13      29.89F
GLASGOW        MOSUNNY   80  44  27 CALM      29.82F
SIDNEY         SUNNY     78  48  34 S6        29.85F
WOLF POINT     SUNNY     81  47  30 CALM      29.82F
GLENDIVE       SUNNY     76  52  43 SW6       29.87S
MILES CITY     MOSUNNY   77  53  43 S5        29.84F
BAKER          SUNNY     74  47  38 S9        29.90S
$$

CITY           SKY/WX    TMP DP  RH WIND       PRES   REMARKS
BILLINGS       PTSUNNY   75  53  46 NE3       29.87F
GREAT FALLS    PTSUNNY   74  44  34 NE6       29.92S
REGINA         PTSUNNY   81  41  24 CALM      29.78S
ESTEVAN        MOSUNNY   81  37  21 SW10G18   29.83F
$$





USA.gov is the U.S. government's official web portal to all federal, state and local government web resources and services.